RH
9 9 10 10 10 10 9 9 9 8 8 8 8 8 8 9 9 9 9 9 9 8 8 7 5 5 4 4 4 5 6 6 6 6 5 3 3 4 5 7 8 11 15 19 21 23 29 37 41 42 44 46 48 53 58 60 61 64 67 67 64 61 61 56 53 48 41 40 41 44 44 41 40 38 38 38 40 44 47 52 57 60 62 64 63 60 60 62
8 8 9 9 10 10 10 10 10 9 9 9 9 8 8 8 9 9 9 9 9 9 9 8 8 6 5 5 4 4 5 5 5 5 5 4 4 4 4 5 7 9 12 17 20 22 27 34 38 42 44 45 46 52 59 59 58 62 65 65 61 59 59 55 54 52 45 41 41 46 44 41 41 41 40 37 37 38 40 47 54 59 62 64 64 61 60 62
8 8 8 8 9 9 9 9 9 9 9 9 9 9 8 8 8 9 9 9 9 9 8 9 9 8 7 6 5 5 4 4 4 5 5 5 5 4 4 5 6 8 10 15 18 21 23 26 34 41 42 44 44 50 57 58 58 58 60 63 60 58 57 55 54 52 50 45 40 42 43 42 44 45 44 38 34 35 36 37 44 54 57 59 62 63 62 60
8 8 7 7 8 8 8 8 8 9 9 9 9 9 9 9 9 9 9 9 9 9 8 8 8 9 8 7 7 6 5 4 5 7 7 6 5 4 3 6 7 7 8 12 16 20 21 23 32 39 40 42 43 48 54 55 56 56 58 60 57 56 57 54 52 51 52 50 43 40 42 44 44 44 43 37 35 37 36 32 36 45 48 52 57 63 63 59
9 9 8 8 8 7 7 7 7 8 8 8 9 9 9 9 9 9 9 9 9 9 8 8 8 8 8 7 7 6 6 6 7 10 10 7 6 4 3 6 7 7 8 11 15 20 24 24 30 38 41 41 43 47 52 52 53 55 57 58 54 54 55 53 52 51 52 51 45 41 43 44 42 41 38 35 35 36 37 37 38 39 40 47 52 58 64 59
12 10 9 9 8 8 8 7 7 7 7 7 7 8 8 9 9 9 9 9 9 9 9 8 8 8 7 7 7 7 7 7 8 10 10 9 9 7 5 6 7 8 8 10 13 18 23 25 28 36 41 42 43 46 50 53 51 52 54 55 54 53 53 52 51 51 52 50 45 43 45 43 39 38 35 32 32 33 37 41 42 39 37 44 50 55 60 57
14 13 12 10 9 8 8 8 8 7 7 7 7 7 8 8 9 9 9 9 9 9 9 9 9 8 7 7 7 7 7 6 7 8 9 9 9 9 8 7 7 7 8 10 12 13 18 23 26 31 39 42 44 44 48 52 49 49 50 50 51 50 50 50 49 50 51 49 46 45 46 43 39 36 32 30 30 32 37 40 42 42 38 41 50 53 54 53
16 15 14 13 12 10 9 8 8 8 7 7 7 7 7 7 8 8 8 9 9 9 8 8 8 8 8 8 7 7 7 7 7 7 9 9 9 9 9 8 8 6 7 8 9 11 14 18 22 27 34 39 42 43 46 49 47 47 46 45 48 49 49 48 47 48 49 49 48 46 47 46 40 37 32 30 32 34 38 40 43 46 42 41 48 53 52 49
18 16 15 15 14 12 11 10 9 8 8 7 7 7 7 7 7 8 8 8 8 9 8 8 8 8 8 8 8 7 7 7 8 9 10 10 10 10 9 8 8 7 7 7 7 9 11 15 20 24 31 36 40 41 42 44 45 44 44 43 45 47 49 49 47 48 47 48 49 46 48 48 41 37 34 32 33 36 40 41 42 45 42 41 46 52 52 47
19 18 17 16 15 14 13 12 10 9 9 8 8 7 7 7 7 7 7 8 8 8 8 8 8 8 8 8 9 9 7 8 10 11 11 11 10 9 9 8 7 7 6 6 6 7 9 13 18 24 31 35 38 38 38 40 41 41 42 41 42 44 46 48 47 48 46 45 46 45 48 50 43 39 39 38 37 38 39 40 41 41 40 41 46 51 52 47
21 20 19 17 16 15 14 13 12 11 10 9 8 8 8 7 7 7 7 7 8 8 7 8 8 8 8 8 9 9 7 8 10 11 11 10 10 9 10 9 7 7 6 6 6 6 8 11 18 28 34 34 35 35 35 37 37 37 38 37 38 39 42 44 44 47 47 44 44 44 47 48 45 42 40 40 39 39 40 41 42 41 39 39 43 49 50 49
22 21 20 18 17 16 15 14 14 13 12 10 9 8 8 7 7 7 6 7 7 7 7 8 8 7 7 8 7 7 7 8 10 10 9 9 9 9 10 10 9 7 6 7 6 6 7 9 19 30 33 32 33 34 34 35 35 34 33 32 33 35 38 39 42 46 46 45 45 45 45 45 47 45 40 39 40 40 43 43 43 42 39 36 38 42 45 48
22 21 20 19 18 17 16 15 14 14 13 12 11 9 8 8 7 7 7 7 7 7 7 7 7 7 8 7 6 7 8 8 8 8 7 8 9 9 9 10 11 10 7 6 6 6 6 11 21 27 29 30 30 32 33 34 34 32 30 31 32 34 34 35 41 44 44 46 46 47 47 46 49 48 41 40 42 44 45 43 42 42 37 33 36 39 40 46
23 21 20 19 19 18 17 16 15 15 14 14 12 11 9 8 8 7 7 7 6 7 7 6 7 7 7 6 5 7 7 7 8 7 6 7 7 8 9 10 12 12 9 7 8 8 8 15 21 24 26 27 28 30 30 31 32 31 29 30 30 30 32 33 39 44 44 46 45 45 46 46 50 50 43 40 43 46 47 43 41 41 37 32 34 37 38 40
24 22 21 20 19 18 17 17 16 15 15 15 13 12 11 9 8 7 7 7 6 7 6 7 7 7 9 7 5 7 8 8 7 6 6 6 6 7 8 10 11 12 10 8 9 9 11 17 21 22 24 24 26 29 29 29 29 28 27 27 26 27 29 31 36 41 44 46 42 41 43 45 51 52 45 40 43 48 47 43 41 41 40 34 31 34 34 35
25 24 22 21 20 18 17 17 16 16 15 15 14 14 12 10 9 8 7 7 7 7 6 8 10 11 13 10 7 7 8 7 6 6 7 6 6 7 8 9 11 13 11 9 8 8 11 17 18 19 20 21 23 25 28 28 27 26 25 25 24 26 30 31 33 38 42 45 41 40 43 45 49 50 45 41 43 48 48 43 41 41 40 36 32 31 30 32
25 25 23 23 21 20 19 18 17 17 16 15 14 14 13 12 12 11 11 10 10 9 8 12 17 17 14 9 8 8 7 7 7 7 8 7 6 7 9 10 11 13 12 9 8 8 10 14 16 17 18 18 19 21 24 24 24 25 25 25 25 26 31 32 33 37 40 41 40 41 44 45 46 45 42 40 41 46 49 43 40 41 39 35 34 30 28 29
25 25 24 23 22 22 20 19 19 18 17 16 14 14 14 16 16 15 16 15 14 14 12 14 18 16 12 9 8 7 8 9 8 7 8 7 6 7 9 10 11 13 12 11 9 8 10 13 15 16 17 17 18 19 21 21 23 25 25 26 26 27 32 34 33 35 36 37 39 41 43 44 46 42 38 40 40 43 48 45 39 40 38 34 34 31 28 27
25 25 24 24 23 23 22 21 21 19 18 17 15 15 17 18 17 19 20 16 15 17 15 15 15 11 9 10 9 9 10 11 9 8 8 7 7 7 8 10 11 13 13 12 10 9 12 14 15 17 17 16 16 17 18 20 23 25 26 25 26 29 32 32 32 33 34 36 40 41 41 43 44 41 39 41 42 41 46 46 41 38 37 33 33 32 28 27
25 25 25 24 24 23 23 22 22 21 19 18 18 18 19 19 19 20 20 16 15 16 13 14 14 11 10 9 10 11 12 11 11 10 10 9 7 7 8 10 12 13 13 12 10 9 12 15 16 16 16 15 15 16 17 19 22 23 24 25 26 29 30 30 31 32 34 38 39 40 40 41 41 40 40 42 43 43 43 46 43 38 36 34 32 32 29 27
26 25 25 25 25 24 23 23 23 23 20 20 20 20 20 21 21 19 18 16 15 14 12 12 12 12 11 9 10 14 15 13 12 11 12 11 9 8 9 10 12 13 12 12 10 9 12 14 15 14 15 15 14 15 16 18 20 21 23 25 26 28 29 29 31 32 34 38 39 39 40 41 40 40 41 42 42 43 42 43 43 39 38 37 33 31 30 27
27 26 25 25 25 25 24 23 24 23 22 22 22 22 22 22 22 20 18 16 15 14 14 12 12 12 11 9 9 13 16 16 13 12 13 13 11 10 10 10 12 13 12 11 11 11 12 13 13 13 13 14 14 15 15 17 19 20 23 27 27 28 30 31 31 32 33 37 39 39 39 40 41 40 42 41 40 42 42 41 42 41 39 39 36 33 31 29
26 25 25 25 25 25 25 24 25 24 24 24 23 24 24 23 23 21 19 17 15 14 13 13 12 11 11 10 8 10 15 15 14 13 12 13 12 11 10 11 12 12 11 11 12 12 13 11 11 11 12 13 14 14 15 16 18 19 21 25 27 27 30 31 32 32 33 36 38 39 40 41 42 43 43 40 38 41 42 41 41 41 40 40 39 36 34 31
24 24 24 24 24 25 25 25 25 26 26 26 25 26 25 24 23 21 21 19 16 16 14 13 13 11 11 11 9 10 11 12 13 13 12 13 13 11 11 11 12 13 12 12 11 11 12 10 9 9 11 12 13 13 14 15 17 18 18 21 25 27 28 30 32 32 33 36 39 42 44 44 44 46 45 42 40 41 42 42 41 42 42 41 40 39 37 34
21 22 22 22 23 23 24 26 27 26 26 26 27 27 26 24 22 21 22 21 18 17 17 15 13 12 12 11 10 10 10 11 11 11 12 12 12 12 12 11 11 12 12 12 12 11 11 10 9 9 9 9 11 12 13 14 15 17 18 16 21 26 28 30 32 32 33 36 40 43 47 49 48 46 46 44 43 42 42 42 41 41 42 41 40 40 39 36
18 19 20 21 21 22 23 25 27 26 25 26 26 26 26 24 22 22 22 23 20 18 17 16 14 13 12 12 12 10 10 10 9 10 12 12 12 13 13 12 11 11 12 12 12 12 11 10 10 10 9 8 9 10 10 12 13 14 16 16 18 25 29 31 32 33 34 36 36 39 43 48 48 47 47 45 44 43 43 42 40 40 40 40 40 40 39 38
16 16 17 18 19 20 23 24 24 25 26 27 26 26 26 24 23 22 23 27 24 17 16 16 14 13 12 12 12 11 10 10 9 9 10 11 13 13 13 13 12 11 11 12 12 11 11 10 10 10 10 9 9 9 8 9 12 11 13 16 18 23 29 32 32 33 34 33 33 36 41 46 48 46 45 45 44 45 44 42 41 40 40 40 40 40 40 39
14 14 14 16 16 18 22 23 22 24 26 27 27 26 26 24 23 24 27 31 25 16 15 15 14 13 12 12 12 11 11 10 9 9 9 11 13 13 14 13 12 11 10 11 12 10 10 11 10 10 10 10 9 8 6 7 10 10 12 16 17 22 30 32 32 32 33 32 32 36 41 47 49 45 43 45 45 43 42 42 42 42 42 41 40 41 41 40
13 13 13 14 14 15 18 20 20 23 26 27 28 28 26 24 24 25 31 31 22 16 16 15 15 14 13 13 12 11 11 10 10 9 9 12 13 13 13 13 12 12 10 11 10 10 10 10 10 10 10 10 9 8 7 7 8 8 11 14 16 23 30 31 32 32 32 33 31 33 37 43 47 45 44 47 45 40 39 41 42 40 40 40 39 40 41 40
11 11 11 12 12 13 16 17 18 20 24 26 28 28 26 26 25 28 33 29 20 17 16 16 16 15 15 14 14 13 12 11 11 11 10 12 13 13 14 13 13 12 12 11 10 9 10 10 10 10 9 9 9 9 8 8 8 7 9 12 15 22 28 29 31 31 33 33 29 28 31 36 42 43 44 44 40 37 37 39 40 38 39 40 39 39 40 40
10 10 10 10 11 12 14 15 16 18 21 24 27 27 27 26 27 31 32 25 19 18 17 18 18 16 15 16 15 15 13 12 12 12 12 12 14 14 14 14 14 14 13 12 10 9 9 10 11 10 9 9 9 9 9 9 8 8 9 11 14 20 26 29 30 31 33 31 27 27 28 31 34 34 36 36 34 32 33 35 37 37 38 38 38 39 39 40
11 10 10 9 10 12 12 13 16 16 18 22 25 27 27 25 25 28 27 21 21 22 19 20 19 16 16 16 16 16 15 14 13 13 14 13 14 15 13 14 15 14 14 12 10 10 9 10 10 10 10 10 11 11 10 10 10 9 9 11 14 18 24 28 27 29 30 26 26 27 27 30 30 26 26 28 28 29 31 32 33 34 35 36 36 38 38 40
12 11 10 9 9 10 10 11 13 14 17 23 25 26 27 27 25 23 22 23 23 21 20 20 19 18 17 16 16 16 16 15 14 14 15 14 14 15 14 14 14 14 14 12 11 11 11 10 10 10 10 10 11 11 11 10 10 10 9 11 14 17 22 24 22 25 27 24 23 24 27 30 29 25 25 23 24 26 28 29 29 29 31 32 34 37 38 39
12 11 11 10 9 11 13 13 13 13 17 24 27 26 25 27 26 22 22 25 24 22 21 21 20 19 19 17 16 16 16 16 15 14 15 15 14 15 14 14 14 13 13 13 12 11 12 12 10 10 10 9 10 10 10 10 10 10 9 9 11 15 18 20 21 23 25 23 21 23 27 29 25 23 22 21 23 24 24 25 26 27 28 30 34 37 37 37
13 12 11 10 12 17 18 17 15 15 19 24 28 28 25 24 23 23 23 23 24 24 23 22 22 21 20 19 18 17 17 17 17 15 15 15 15 14 14 14 14 14 13 13 13 12 12 12 11 9 9 9 9 9 9 10 10 10 9 9 10 12 14 18 21 20 19 20 19 21 25 26 21 19 19 21 23 23 24 25 26 28 28 30 35 37 37 36
14 12 11 12 17 22 22 21 19 18 22 27 30 29 24 22 22 22 23 22 23 24 24 24 23 22 22 21 20 20 19 18 19 18 16 15 15 15 14 14 14 14 14 13 14 13 13 12 10 9 10 10 9 9 9 10 11 10 9 9 10 10 10 14 18 16 15 18 18 17 19 21 19 17 17 19 21 23 27 28 27 28 29 30 33 34 37 37
17 13 10 13 20 23 24 24 23 23 25 29 32 29 24 23 23 23 24 25 25 24 25 27 25 23 24 23 22 21 20 19 19 19 18 17 16 15 14 14 14 14 14 15 15 14 14 13 11 10 11 10 9 10 10 10 11 10 10 9 9 9 9 12 15 15 16 19 18 15 14 16 16 17 17 17 19 23 27 27 25 25 28 29 29 30 32 35
22 16 10 15 22 25 26 27 27 27 28 31 34 31 27 25 23 23 24 26 27 26 27 28 27 25 25 24 24 23 22 21 20 19 19 19 17 16 15 15 15 14 15 16 16 16 16 15 14 11 11 10 10 11 12 11 10 10 10 9 10 10 10 12 14 15 16 17 17 16 15 15 15 17 16 15 19 23 24 25 25 25 26 26 26 29 29 31
24 19 13 16 23 26 26 29 30 31 33 36 36 32 27 25 23 23 23 25 27 29 30 30 28 28 28 27 27 26 25 23 22 21 20 19 18 17 17 17 16 16 17 18 18 18 17 17 16 13 11 11 12 13 13 12 11 11 10 9 10 10 10 11 12 14 16 18 18 16 16 17 16 16 15 13 17 21 21 23 25 24 24 25 26 30 30 30
27 26 17 13 21 27 28 31 33 35 36 38 36 32 28 28 25 24 23 25 27 30 33 33 32 32 31 30 30 30 29 26 25 23 21 20 19 18 21 23 21 19 19 19 19 19 20 20 18 15 14 13 13 14 13 11 11 12 11 10 10 9 10 10 10 12 15 21 24 20 16 17 17 15 14 12 13 17 19 21 24 25 26 28 29 30 30 29
30 32 19 11 19 28 31 36 38 38 38 39 38 36 33 32 30 27 26 25 26 28 33 36 36 34 33 33 34 35 33 30 28 27 24 22 20 20 26 31 29 25 23 21 20 20 21 21 19 17 15 14 14 14 13 11 11 11 11 11 10 10 10 10 11 12 11 16 23 20 15 13 13 12 12 13 13 15 17 21 27 29 29 30 32 32 31 29
34 32 19 13 23 30 35 42 43 42 42 43 42 39 36 35 33 31 30 30 30 29 31 36 38 36 35 35 36 39 39 35 33 31 27 25 24 25 28 30 29 28 25 22 20 21 22 23 22 19 17 16 14 14 14 13 13 12 11 11 10 11 11 10 14 15 12 11 15 16 14 11 11 12 12 12 15 16 18 23 28 29 29 31 32 31 32 31
38 32 19 14 23 30 36 43 46 48 48 46 43 39 37 37 36 33 32 33 34 32 33 38 41 40 39 38 38 41 42 40 38 35 32 31 30 30 28 27 27 27 29 30 29 28 28 25 23 22 20 17 15 15 15 15 14 15 13 12 12 11 10 11 15 16 12 11 13 14 13 11 12 13 11 12 15 17 18 22 24 26 27 30 32 31 32 33
42 36 25 20 26 31 37 43 48 53 55 54 51 45 39 37 38 38 38 36 37 38 39 41 43 44 44 42 41 42 43 45 45 40 37 37 34 32 31 29 29 30 35 41 39 36 32 27 24 26 24 22 19 16 16 16 16 16 15 14 13 12 11 11 13 14 12 12 13 13 13 13 14 13 9 9 12 17 21 22 22 24 27 30 31 31 32 32
48 41 32 30 34 37 42 46 47 49 52 56 56 53 48 43 40 42 44 43 43 45 45 44 45 47 47 45 45 44 43 46 49 45 42 41 37 35 34 33 32 31 36 41 41 37 32 27 25 27 26 24 21 18 18 18 16 15 15 14 13 14 13 11 11 11 13 14 12 12 14 15 15 12 9 8 10 16 21 21 23 25 26 28 30 30 31 31
59 52 41 35 38 41 46 51 50 47 48 51 53 53 54 50 42 38 40 42 44 46 48 46 45 46 47 48 50 47 43 44 48 47 47 45 42 38 37 36 34 34 36 39 40 37 33 29 26 24 22 21 20 18 18 19 16 15 15 14 14 14 14 14 13 11 13 15 12 13 16 15 12 11 10 9 9 12 17 21 24 26 26 28 30 30 31 32
66 62 53 47 45 45 49 53 53 50 50 52 51 51 52 51 42 34 33 37 39 40 42 44 45 45 46 48 51 50 46 46 48 48 48 48 46 42 40 39 38 37 37 39 40 39 38 35 28 23 21 19 19 19 18 16 15 16 16 14 14 14 14 15 14 12 14 14 11 13 17 14 11 12 12 11 9 11 18 25 27 26 25 27 28 29 32 33
70 67 64 63 60 58 58 59 58 56 56 57 55 52 51 49 44 39 36 37 38 37 39 43 44 44 43 44 49 51 50 50 51 50 50 50 47 43 41 40 39 38 38 38 40 43 44 41 34 30 26 21 19 21 19 17 16 16 17 16 14 15 15 15 14 13 14 13 10 14 17 14 11 12 11 12 12 13 20 25 25 25 26 26 27 29 31 33
74 75 73 74 73 72 71 70 69 66 62 62 62 57 56 55 51 48 45 42 41 40 43 46 45 46 48 47 50 53 53 52 54 55 55 53 50 46 44 42 40 38 38 39 41 44 47 45 41 39 33 24 20 20 20 19 18 17 18 18 15 15 15 15 16 15 15 13 12 14 17 15 13 12 11 13 14 16 19 22 24 27 27 24 26 29 30 31
81 85 86 84 82 80 79 76 77 75 70 71 73 67 65 66 61 57 52 49 47 44 45 48 48 49 51 52 53 53 51 52 56 59 59 58 54 50 48 45 42 41 41 42 41 43 47 47 44 43 41 31 22 20 21 21 19 19 20 20 17 16 16 16 17 17 17 15 14 15 16 14 14 16 14 13 14 17 19 22 25 27 26 24 25 28 29 31
86 92 95 92 86 85 87 85 82 82 78 78 79 75 73 73 69 65 58 53 51 48 47 51 53 51 49 50 52 51 50 52 54 56 60 61 56 52 49 46 45 46 46 45 42 42 46 47 44 47 49 39 27 25 25 23 22 21 21 22 21 18 17 17 17 18 18 17 16 16 16 13 14 16 15 12 13 16 19 23 26 27 27 26 25 28 28 28
89 94 97 94 89 87 90 88 85 84 82 81 81 81 78 74 72 70 64 56 54 52 50 53 56 55 52 48 46 44 47 51 50 51 59 63 58 54 50 47 47 49 48 48 46 44 46 48 48 51 53 44 34 32 29 26 28 25 21 21 23 22 19 18 18 20 20 20 20 16 15 16 14 14 13 12 11 14 17 21 25 28 30 28 25 26 29 27